Location: Andalandy
(21.3072°S, 43.5627°E)
Time: 19:55:06
(UTC+00:00)

Daily predictions for brighter satellites

Satellite Brightness Start Highest point End
(mag) Time Altitude Azimuth Time Altitude Azimuth Time Altitude Azimuth
Cosmos 540 Rocket 4.2 15:24:29 10° S 15:29:08 33° ESE 15:33:45 10° NE
CZ-4C R/B 3.6 15:23:48 10° N 15:31:17 36° ENE 15:38:21 10° SE
USA 215 4.3 15:27:16 10° ESE 15:32:18 23° ENE 15:37:17 10° N
YAOGAN 1 3.8 15:29:16 10° SE 15:32:33 21° E 15:35:47 10° NNE
CZ-2C R/B 4.4 15:29:00 10° NE 15:33:22 38° ESE 15:37:49 10° S
Cosmos 1703 3.8 15:31:21 10° NNE 15:34:57 37° E 15:38:34 10° SSE
Cosmos 1535 Rocket 4.5 15:29:55 10° N 15:35:56 67° E 15:42:03 10° SSE
Cosmos 1503 Rocket 4.1 15:31:15 10° N 15:36:23 60° ENE 15:41:37 10° SSE
Envisat 3.1 15:32:37 10° SSE 15:37:37 54° E 15:42:34 10° N
SAR-Lupe-2 4.1 15:34:25 10° NE 15:37:46 39° ESE 15:41:10 10° S
GPS 2-17 Rocket1 3.8 15:35:40 10° W 15:40:21 47° NNW 15:45:01 10° ENE
ADEOS Rocket 3.6 15:35:35 10° NE 15:41:22 36° ESE 15:46:42 10° S
Cosmos 1814 Rocket 4.0 15:39:04 10° S 15:44:11 63° ESE 15:49:17 10° NNE
Mugunghwa Rocket 4.3 15:36:34 10° WNW 15:44:13 87° SSW 15:51:05 10° ESE
H-2A ROCKET BODY 4.3 15:06:32 10° W 15:44:29 60° S 15:50:43 10° ESE
Cosmos 1455 3.6 15:41:38 10° SSE 15:44:37 21° E 15:47:36 10° NE
Cosmos 1242 Rocket 2.4 15:44:58 10° N 15:48:33 76° E 15:52:08 10° S
Cosmos 1340 Rocket 4.3 15:49:11 10° SE 15:51:58 18° E 15:53:34 15° ENE
Meteor 1-11 4.4 15:48:36 10° N 15:54:14 54° E 15:59:54 10° SSE
SL-24 R/B 4.0 15:51:55 10° NNE 15:56:11 90° ESE 16:00:30 10° SSW
Cosmos 1939 Rocket 4.0 15:58:32 10° SE 16:01:34 22° E 16:03:03 18° NE
YAOGAN 6 2.6 15:58:58 10° SSE 16:02:44 86° E 16:06:27 10° N
Cosmos-2242 3.4 16:02:43 10° S 16:07:08 70° W 16:11:30 10° N
Cosmos 2369 Rocket 2.7 16:05:58 10° SSW 16:11:39 64° WNW 16:17:15 10° N
CZ-2D R/B 3.7 16:10:35 10° SSE 16:14:10 37° E 16:17:13 13° NNE
CSL-04 Debris 4.1 16:12:52 10° SSE 16:18:18 75° ENE 16:23:42 10° N
Ariane Rocket 3.6 16:15:42 10° SE 16:20:13 31° E 16:22:14 24° NE
Cosmos 1656 Rocket 3.6 16:24:17 10° S 16:29:59 69° ESE 16:33:13 26° NNE
CZ-4 R/B 2.7 16:26:27 10° S 16:30:14 41° WSW 16:34:04 10° NNW
Cosmos 220 Rocket 4.0 16:27:32 10° S 16:31:49 55° ESE 16:32:41 46° ENE
Delta 198 3.1 16:30:52 10° WSW 16:34:38 64° S 16:35:08 56° SE
Cosmos 1943 Rocket 4.2 16:34:51 10° SW 16:39:21 26° WNW 16:43:50 10° NNW
Hubble Space Telescope 1.6 16:38:19 10° NW 16:41:25 36° N 16:41:25 36° N
GOES 2 Rocket 3.3 16:39:56 10° NW 16:44:03 50° NNE 16:44:03 50° NNE
Cosmos 1447 Rocket 4.4 16:42:31 10° S 16:48:42 65° E 16:50:53 40° NNE
Cosmos 2061 Rocket 4.5 16:52:48 39° ESE 16:52:48 39° ESE 16:57:46 10° SSE
GPS 2-15 Rocket1 3.0 16:50:29 10° W 16:55:20 75° N 16:55:23 75° N
Cosmos 1459 Rocket 3.9 16:53:04 25° N 16:56:58 70° E 17:03:21 10° S
Meteor 2-20 4.4 16:53:51 10° S 16:59:53 59° E 17:00:07 58° E
Intercosmos 25 Rocket 4.0 16:59:09 10° S 17:02:52 64° SE 17:02:52 64° SE
COSMOS 2406 3.6 17:05:07 10° NNW 17:10:43 61° WSW 17:16:22 10° S
Meteor 1-27 4.2 17:05:32 10° S 17:11:15 82° W 17:11:56 69° NNW
USA 215 3.7 17:08:50 10° SSE 17:15:18 61° SW 17:21:44 10° NW
CZ-4C R/B 4.3 17:12:11 10° NW 17:19:50 39° WSW 17:26:57 10° S
In-Cosmos 22 Rocket 4.5 17:23:05 63° S 17:23:05 63° S 17:27:57 10° S
Meteor 2-2 Rocket 4.3 17:16:38 10° S 17:22:18 81° SSW 17:22:18 81° SSW
Cosmos 2173 Rocket 4.2 17:20:37 30° NNW 17:23:39 64° W 17:29:43 10° S
CZ-3B R/B 4.3 16:47:18 10° W 17:25:34 74° S 17:29:28 44° ESE
Cosmos 1802 Rocket 4.1 17:28:39 68° NW 17:29:18 74° W 17:35:33 10° S
Cosmos 2221 4.2 17:27:24 10° SSW 17:30:24 31° WSW 17:30:24 31° WSW
H-2A R/B (2) 3.3 17:28:29 10° WSW 17:29:47 28° WSW 17:29:47 28° WSW
Mugunghwa Rocket 4.5 17:33:28 10° W 17:40:16 55° S 17:40:16 55° S
CZ-2C R/B 3.8 17:44:41 38° SW 17:44:41 38° SW 17:48:03 10° SSW
SL-16 R/B 4.4 23:03:33 10° SSE 23:06:03 24° SE 23:06:03 24° SE
Cosmos 2263 Rocket 4.4 23:21:51 21° ESE 23:21:51 21° ESE 23:24:04 10° SE
